Tracking 19709 objects as of 19-Jun-2019
HD Live streaming from Space Station
objects crossing your sky now

SL-8 DEB

Track SL-8 DEB now!
10-day predictions


NORAD ID: 5778
Int'l Code: 1971-114C
Perigee: 657.7 km
Apogee: 670.4 km
Inclination: 74.0 °
Period: 97.9 minutes
Semi major axis: 7035 km
RCS: 0.0065 m2 (small)
Launch date: December 17, 1971
Source: Commonwealth of Independent States (former USSR) (CIS)
Launch site: PLESETSK MISSILE AND SPACE COMPLEX (PKMTR)

Note: This is SATELLITE DEBRIS
aabbcc
Your satellite tracking list
Your tracking list is empty




NASA's NSSDC Master Catalog

Two Line Element Set (TLE):
1  5778U 71114C   19169.51895424  .00000230  00000-0  42584-4 0  9997
2  5778  74.0121 335.8427 0009018 332.3256  27.7435 14.71292226521909
Source of the keplerian elements: AFSPC